Stündliche Wetter Holmy

Heute, 22 Juni, Dienstag

Zeit Temperatur Niederschläge Wind Luftdruck Luftfeuchtigkeit
00:00 +23°C° 0 mm 2 m/S 751 mmHg 72%
01:00 +21°C° 0 mm 2 m/S 751 mmHg 74%
02:00 +21°C° 0 mm 2 m/S 751 mmHg 77%
03:00 +20°C° 0 mm 2 m/S 751 mmHg 79%
04:00 +21°C° 0 mm 2 m/S 751 mmHg 79%
05:00 +21°C° 0 mm 2 m/S 751 mmHg 79%
06:00 +23°C° 0 mm 2 m/S 751 mmHg 79%
07:00 +25°C° 0 mm 2 m/S 751 mmHg 73%
08:00 +27°C° 0 mm 2 m/S 751 mmHg 68%
09:00 +29°C° 0 mm 2 m/S 751 mmHg 63%
10:00 +30°C° 0 mm 2 m/S 751 mmHg 58%
11:00 +31°C° 0 mm 2 m/S 751 mmHg 54%
12:00 +32°C° 0 mm 2 m/S 751 mmHg 50%
13:00 +32°C° 0 mm 2 m/S 751 mmHg 48%
14:00 +32°C° 0 mm 2 m/S 751 mmHg 46%
15:00 +32°C° 0 mm 2 m/S 751 mmHg 44%
16:00 +32°C° 0 mm 2 m/S 751 mmHg 49%
17:00 +32°C° 0 mm 1 m/S 750 mmHg 53%
18:00 +32°C° 0 mm 1 m/S 750 mmHg 57%
19:00 +30°C° 0 mm 1 m/S 750 mmHg 60%
20:00 +28°C° 0 mm 1 m/S 750 mmHg 63%
21:00 +26°C° 0 mm 1 m/S 750 mmHg 67%
22:00 +25°C° 0 mm 1 m/S 750 mmHg 69%
23:00 +24°C° 0 mm 1 m/S 750 mmHg 71%

Morgen, 23 Juni, Mittwoch

Zeit Temperatur Niederschläge Wind Luftdruck Luftfeuchtigkeit
00:00 +24°C° 0 mm 2 m/S 750 mmHg 74%
01:00 +23°C° 0 mm 2 m/S 750 mmHg 76%
02:00 +23°C° 0 mm 2 m/S 750 mmHg 79%
03:00 +21°C° 0 mm 2 m/S 750 mmHg 81%
04:00 +23°C° 0 mm 2 m/S 750 mmHg 80%
05:00 +24°C° 0 mm 1 m/S 751 mmHg 80%
06:00 +24°C° 0 mm 1 m/S 751 mmHg 79%
07:00 +26°C° 0 mm 2 m/S 751 mmHg 74%
08:00 +28°C° 0 mm 2 m/S 751 mmHg 68%
09:00 +29°C° 0 mm 2 m/S 751 mmHg 62%
10:00 +30°C° 0 mm 2 m/S 751 mmHg 58%
11:00 +31°C° 0 mm 2 m/S 751 mmHg 54%
12:00 +32°C° 0 mm 2 m/S 751 mmHg 50%
13:00 +32°C° 0 mm 2 m/S 750 mmHg 48%
14:00 +34°C° 0 mm 2 m/S 750 mmHg 45%
15:00 +34°C° 0 mm 2 m/S 750 mmHg 43%
16:00 +34°C° 0 mm 2 m/S 750 mmHg 48%
17:00 +32°C° 0 mm 1 m/S 750 mmHg 53%
18:00 +32°C° 0 mm 1 m/S 750 mmHg 57%
19:00 +30°C° 0 mm 1 m/S 750 mmHg 61%
20:00 +28°C° 0 mm 1 m/S 750 mmHg 65%
21:00 +26°C° 0 mm 1 m/S 750 mmHg 68%
22:00 +25°C° 0 mm 1 m/S 750 mmHg 69%
23:00 +25°C° 0 mm 1 m/S 750 mmHg 71%

übermorgen, 24 Juni, Donnerstag

Zeit Temperatur Niederschläge Wind Luftdruck Luftfeuchtigkeit
00:00 +24°C° 0 mm 1 m/S 750 mmHg 72%
01:00 +24°C° 0 mm 1 m/S 750 mmHg 74%
02:00 +23°C° 0 mm 1 m/S 750 mmHg 75%
03:00 +23°C° 0 mm 1 m/S 750 mmHg 77%
04:00 +24°C° 0 mm 1 m/S 750 mmHg 77%
05:00 +24°C° 0 mm 1 m/S 750 mmHg 77%
06:00 +25°C° 0 mm 1 m/S 750 mmHg 76%
07:00 +27°C° 0 mm 1 m/S 750 mmHg 71%
08:00 +28°C° 0 mm 1 m/S 750 mmHg 66%
09:00 +30°C° 0 mm 2 m/S 750 mmHg 61%
10:00 +31°C° 0 mm 2 m/S 750 mmHg 56%
11:00 +32°C° 0 mm 2 m/S 750 mmHg 52%
12:00 +34°C° 0 mm 2 m/S 750 mmHg 48%
13:00 +34°C° 0 mm 2 m/S 750 mmHg 47%
14:00 +34°C° 0 mm 2 m/S 750 mmHg 45%
15:00 +34°C° 0 mm 3 m/S 749 mmHg 44%
16:00 +34°C° 0 mm 2 m/S 749 mmHg 49%
17:00 +32°C° 0 mm 1 m/S 749 mmHg 53%
18:00 +32°C° 0 mm 1 m/S 749 mmHg 58%
19:00 +29°C° 0.1 mm 1 m/S 749 mmHg 66%
20:00 +27°C° 0.1 mm 2 m/S 749 mmHg 74%
21:00 +24°C° 0.1 mm 2 m/S 749 mmHg 81%
22:00 +24°C° 0.1 mm 2 m/S 749 mmHg 83%
23:00 +23°C° 0.1 mm 2 m/S 748 mmHg 85%

25 Juni, Freitag

Zeit Temperatur Niederschläge Wind Luftdruck Luftfeuchtigkeit
00:00 +23°C° 0.1 mm 1 m/S 748 mmHg 86%
01:00 +23°C° 0.1 mm 2 m/S 748 mmHg 86%
02:00 +21°C° 0.1 mm 2 m/S 748 mmHg 86%
03:00 +21°C° 0.1 mm 2 m/S 748 mmHg 87%
04:00 +23°C° 0 mm 1 m/S 748 mmHg 86%
05:00 +23°C° 0 mm 1 m/S 748 mmHg 85%
06:00 +24°C° 0 mm 1 m/S 748 mmHg 84%
07:00 +26°C° 0 mm 1 m/S 748 mmHg 77%
08:00 +28°C° 0 mm 1 m/S 748 mmHg 70%
09:00 +30°C° 0 mm 1 m/S 748 mmHg 63%
10:00 +31°C° 0 mm 1 m/S 748 mmHg 59%
11:00 +31°C° 0 mm 1 m/S 748 mmHg 56%
12:00 +32°C° 0 mm 1 m/S 748 mmHg 52%
13:00 +33°C° 0 mm 1 m/S 748 mmHg 51%
14:00 +33°C° 0 mm 1 m/S 748 mmHg 50%
15:00 +33°C° 0 mm 1 m/S 748 mmHg 50%
16:00 +33°C° 0 mm 1 m/S 747 mmHg 54%
17:00 +32°C° 0 mm 1 m/S 747 mmHg 57%
18:00 +32°C° 0 mm 1 m/S 746 mmHg 61%
19:00 +30°C° 0 mm 1 m/S 746 mmHg 66%
20:00 +28°C° 0 mm 1 m/S 746 mmHg 72%
21:00 +26°C° 0 mm 1 m/S 746 mmHg 77%
22:00 +25°C° 0.4 mm 1 m/S 746 mmHg 80%
23:00 +24°C° 0.4 mm 1 m/S 746 mmHg 83%

26 Juni, Samstag

Zeit Temperatur Niederschläge Wind Luftdruck Luftfeuchtigkeit
00:00 +22°C° 0.4 mm 0 m/S 746 mmHg 86%
01:00 +21°C° 0.1 mm 0 m/S 746 mmHg 87%
02:00 +23°C° 0.1 mm 1 m/S 746 mmHg 88%
03:00 +23°C° 0.1 mm 1 m/S 746 mmHg 89%
04:00 +23°C° 0 mm 1 m/S 746 mmHg 87%
05:00 +24°C° 0 mm 1 m/S 746 mmHg 86%
06:00 +23°C° 0 mm 0 m/S 746 mmHg 84%
07:00 +24°C° 0 mm 0 m/S 746 mmHg 78%
08:00 +26°C° 0 mm 0 m/S 746 mmHg 72%
09:00 +27°C° 0 mm 0 m/S 746 mmHg 66%
10:00 +28°C° 0.1 mm 0 m/S 746 mmHg 61%
11:00 +31°C° 0.1 mm 1 m/S 746 mmHg 55%
12:00 +33°C° 0.1 mm 1 m/S 746 mmHg 50%
13:00 +33°C° 0 mm 1 m/S 745 mmHg 49%
14:00 +33°C° 0 mm 1 m/S 745 mmHg 48%
15:00 +33°C° 0 mm 1 m/S 745 mmHg 48%
16:00 +32°C° 0 mm 1 m/S 745 mmHg 51%
17:00 +32°C° 0 mm 1 m/S 745 mmHg 55%
18:00 +32°C° 0 mm 1 m/S 744 mmHg 59%
19:00 +30°C° 0.2 mm 1 m/S 744 mmHg 66%
20:00 +27°C° 0.2 mm 2 m/S 744 mmHg 73%
21:00 +25°C° 0.2 mm 2 m/S 744 mmHg 80%
22:00 +24°C° 0.2 mm 2 m/S 744 mmHg 80%
23:00 +24°C° 0.2 mm 2 m/S 744 mmHg 80%

27 Juni, Sonntag

Zeit Temperatur Niederschläge Wind Luftdruck Luftfeuchtigkeit
00:00 +23°C° 0.2 mm 1 m/S 744 mmHg 80%
01:00 +23°C° 0.2 mm 1 m/S 744 mmHg 83%
02:00 +22°C° 0.2 mm 1 m/S 744 mmHg 85%
03:00 +22°C° 0.2 mm 1 m/S 744 mmHg 88%
04:00 +23°C° 0 mm 1 m/S 744 mmHg 86%
05:00 +23°C° 0 mm 1 m/S 744 mmHg 85%
06:00 +24°C° 0 mm 1 m/S 744 mmHg 84%
07:00 +26°C° 0 mm 1 m/S 744 mmHg 77%
08:00 +27°C° 0 mm 1 m/S 744 mmHg 70%
09:00 +27°C° 0 mm 0 m/S 744 mmHg 64%
10:00 +30°C° 0.1 mm 1 m/S 744 mmHg 59%
11:00 +31°C° 0.1 mm 1 m/S 744 mmHg 55%
12:00 +32°C° 0.1 mm 1 m/S 744 mmHg 51%
13:00 +32°C° 0 mm 1 m/S 743 mmHg 49%
14:00 +34°C° 0 mm 2 m/S 743 mmHg 47%
15:00 +34°C° 0 mm 2 m/S 743 mmHg 45%
16:00 +32°C° 0 mm 2 m/S 743 mmHg 50%
17:00 +31°C° 0 mm 2 m/S 743 mmHg 56%
18:00 +30°C° 0 mm 2 m/S 742 mmHg 61%
19:00 +28°C° 0.5 mm 2 m/S 743 mmHg 69%
20:00 +25°C° 0.5 mm 2 m/S 743 mmHg 77%
21:00 +21°C° 0.5 mm 2 m/S 743 mmHg 84%
22:00 +22°C° 0.2 mm 1 m/S 743 mmHg 86%
23:00 +22°C° 0.2 mm 1 m/S 742 mmHg 88%
Mehr zeigen

Wir brauchen deine Erlaubnis

Meteoprog und unser Service Anbieter werden persönliche Daten aufbewahren, so wie Cookies, Geräte Bezeichnung oder ähnliche Technologien von deinem Gerät und Prozess, so wie Persönliche Daten Inhalte und Werbungen, genauso wie social Media und den Verkehr zu analysieren.

  • Aufbewahrung und/oder Zugang zu deiner Geräte Informationen.

    Cookies, Geräte Bezeichnung oder andere Informationen, können aufbewahrt oder Zugang zu deinem Gerät erhalten, für den Grund, der oben angegeben wird.

  • Personalisierte Werbung und Inhalte, Messungen, Einblick in das Publikum und Produkt Entwicklung.

    Werbungen und Inhalte können personalisiert werden, basierend auf ein Profil. Mehr Daten können besser personalisierte Werbungen und Inhalte hinzufügen. Werbung und Inhalte können gezeigt und gemessen werden. Einblicke über das Publikum, welche die Werbung gesehen haben und den Inhalt, können abgeleitet werden. So wie Daten können genutzt werden, um es zu verbessern oder die Benutzer Erfahrung zu verbessern das System und die Software.

Wenn du “Ich stimme zu” klickst, erlaubst du uns, die Cookies zu benutzen die Geräte Bezeichnung, den Web oder ähnliche Technologien zu benutzen. Deine Settings, können in deinem Gerät bei deinem Browser geändert werden.

Für den bestimmten Zweck, berechtigten Interessen beruhen darauf, mehr als auf den Inhalt. Du kannst mehr darüber in unseren Privaten und Cookie Politik lesen.